| time (UTC) | temp C | wind direction | speed KPH | gust KPH | rain 1hr cm | rain 24hr cm | rain mn cm | humidity % | barometer mb |
| 20260505140547 | 26 | 15 | 6.4 | 14.5 | 0.00 | 0.00 | 0.00 | 58 | 1023.7 |
| 20260505124547 | 24 | 52 | 9.7 | 20.9 | 0.00 | 0.00 | 0.00 | 67 | 1023.7 |
| 20260505124047 | 24 | 53 | 8.0 | 16.1 | 0.00 | 0.00 | 0.00 | 68 | 1023.7 |
| 20260505123547 | 24 | 32 | 8.0 | 14.5 | 0.00 | 0.00 | 0.00 | 69 | 1023.5 |
| 20260505123047 | 23 | 46 | 8.0 | 16.1 | 0.00 | 0.00 | 0.00 | 71 | 1023.6 |
| 20260505122547 | 23 | 55 | 6.4 | 16.1 | 0.00 | 0.00 | 0.00 | 71 | 1023.7 |
| 20260505122047 | 23 | 55 | 6.4 | 16.1 | 0.00 | 0.00 | 0.00 | 71 | 1023.7 |
| 20260505121547 | 23 | 47 | 6.4 | 16.1 | 0.00 | 0.00 | 0.00 | 72 | 1023.5 |
| 20260505121047 | 23 | 56 | 8.0 | 17.7 | 0.00 | 0.00 | 0.00 | 73 | 1023.5 |
| 20260505120547 | 22 | 76 | 8.0 | 14.5 | 0.00 | 0.00 | 0.00 | 74 | 1023.3 |
| 20260505120047 | 22 | 76 | 8.0 | 14.5 | 0.00 | 0.00 | 0.00 | 74 | 1023.3 |
| 20260505115547 | 22 | 60 | 6.4 | 12.9 | 0.00 | 0.00 | 0.00 | 75 | 1023.3 |
| 20260505115047 | 22 | 53 | 8.0 | 16.1 | 0.00 | 0.00 | 0.00 | 75 | 1023.3 |
| 20260505114547 | 22 | 53 | 8.0 | 16.1 | 0.00 | 0.00 | 0.00 | 75 | 1023.3 |
| 20260505114047 | 22 | 63 | 6.4 | 16.1 | 0.00 | 0.00 | 0.00 | 76 | 1023.1 |
| 20260505113547 | 22 | 76 | 6.4 | 11.3 | 0.00 | 0.00 | 0.00 | 77 | 1023.1 |
| 20260505113047 | 21 | 68 | 6.4 | 14.5 | 0.00 | 0.00 | 0.00 | 77 | 1023.0 |
| 20260505112547 | 21 | 83 | 6.4 | 12.9 | 0.00 | 0.00 | 0.00 | 79 | 1022.9 |
| 20260505112047 | 21 | 77 | 8.0 | 12.9 | 0.00 | 0.00 | 0.00 | 80 | 1022.7 |
| 20260505111547 | 21 | 77 | 8.0 | 12.9 | 0.00 | 0.00 | 0.00 | 80 | 1022.7 |
| 20260505111047 | 21 | 85 | 9.7 | 14.5 | 0.00 | 0.00 | 0.00 | 80 | 1022.7 |
| 20260505110547 | 20 | 85 | 8.0 | 12.9 | 0.00 | 0.00 | 0.00 | 82 | 1022.6 |
| 20260505102047 | 18 | 83 | 6.4 | 11.3 | 0.00 | 0.00 | 0.00 | 88 | 1022.4 |
| 20260505101547 | 18 | 86 | 8.0 | 12.9 | 0.00 | 0.00 | 0.00 | 89 | 1022.3 |
| 20260505101047 | 18 | 83 | 8.0 | 11.3 | 0.00 | 0.00 | 0.00 | 89 | 1022.1 |
| 20260505100547 | 18 | 85 | 8.0 | 12.9 | 0.00 | 0.00 | 0.00 | 89 | 1022.0 |
| 20260505100047 | 18 | 89 | 8.0 | 12.9 | 0.00 | 0.00 | 0.00 | 90 | 1022.0 |
| 20260505095547 | 18 | 90 | 8.0 | 11.3 | 0.00 | 0.00 | 0.00 | 90 | 1021.9 |
| 20260505095047 | 18 | 92 | 8.0 | 11.3 | 0.00 | 0.00 | 0.00 | 90 | 1021.9 |
| 20260505094547 | 18 | 92 | 8.0 | 11.3 | 0.00 | 0.00 | 0.00 | 90 | 1021.9 |
| 20260505094047 | 18 | 91 | 8.0 | 11.3 | 0.00 | 0.00 | 0.00 | 90 | 1021.8 |
| 20260505093547 | 18 | 92 | 8.0 | 11.3 | 0.00 | 0.00 | 0.00 | 90 | 1021.7 |
| 20260505093047 | 18 | 92 | 8.0 | 11.3 | 0.00 | 0.00 | 0.00 | 90 | 1021.7 |
| 20260505092547 | 18 | 92 | 8.0 | 12.9 | 0.00 | 0.00 | 0.00 | 90 | 1021.6 |
| 20260505092047 | 18 | 93 | 8.0 | 11.3 | 0.00 | 0.00 | 0.00 | 89 | 1021.3 |
| 20260505091547 | 18 | 96 | 8.0 | 11.3 | 0.00 | 0.00 | 0.00 | 89 | 1021.3 |
| 20260505091047 | 18 | 97 | 8.0 | 11.3 | 0.00 | 0.00 | 0.00 | 89 | 1021.3 |
| 20260505090547 | 18 | 97 | 8.0 | 11.3 | 0.00 | 0.00 | 0.00 | 89 | 1021.3 |
| 20260505090047 | 18 | 97 | 8.0 | 11.3 | 0.00 | 0.00 | 0.00 | 89 | 1021.3 |
| 20260505085547 | 18 | 98 | 9.7 | 11.3 | 0.00 | 0.00 | 0.00 | 89 | 1021.2 |
| 20260505085047 | 18 | 97 | 8.0 | 11.3 | 0.00 | 0.00 | 0.00 | 89 | 1021.2 |
| 20260505084547 | 18 | 97 | 8.0 | 11.3 | 0.00 | 0.00 | 0.00 | 89 | 1021.2 |
| 20260505084047 | 18 | 100 | 8.0 | 11.3 | 0.00 | 0.00 | 0.00 | 89 | 1021.1 |
| 20260505083547 | 18 | 100 | 8.0 | 11.3 | 0.00 | 0.00 | 0.00 | 89 | 1021.0 |
| 20260505083047 | 18 | 100 | 8.0 | 11.3 | 0.00 | 0.00 | 0.00 | 89 | 1021.0 |
| 20260505082547 | 18 | 100 | 8.0 | 11.3 | 0.00 | 0.00 | 0.00 | 89 | 1021.0 |
| 20260505082047 | 18 | 103 | 8.0 | 11.3 | 0.00 | 0.00 | 0.00 | 89 | 1021.0 |
| 20260505081547 | 19 | 107 | 6.4 | 11.3 | 0.00 | 0.00 | 0.00 | 88 | 1020.9 |
| 20260505081047 | 19 | 115 | 6.4 | 11.3 | 0.00 | 0.00 | 0.00 | 88 | 1020.9 |
| 20260505080547 | 19 | 113 | 4.8 | 11.3 | 0.00 | 0.00 | 0.00 | 88 | 1021.0 |
| 20260505080047 | 19 | 113 | 4.8 | 11.3 | 0.00 | 0.00 | 0.00 | 88 | 1021.0 |
| 20260505075547 | 19 | 115 | 4.8 | 11.3 | 0.00 | 0.00 | 0.00 | 88 | 1020.9 |
| 20260505075047 | 19 | 109 | 6.4 | 11.3 | 0.00 | 0.00 | 0.00 | 88 | 1020.9 |
| 20260505074547 | 19 | 109 | 6.4 | 11.3 | 0.00 | 0.00 | 0.00 | 88 | 1020.9 |
| 20260505074047 | 19 | 107 | 8.0 | 12.9 | 0.00 | 0.00 | 0.00 | 88 | 1020.9 |
| 20260505073547 | 19 | 103 | 9.7 | 16.1 | 0.00 | 0.00 | 0.00 | 87 | 1021.0 |
| 20260505073047 | 19 | 106 | 8.0 | 12.9 | 0.00 | 0.00 | 0.00 | 87 | 1020.9 |
| 20260505072546 | 19 | 100 | 8.0 | 12.9 | 0.00 | 0.00 | 0.00 | 87 | 1021.0 |
| 20260505072047 | 19 | 100 | 8.0 | 12.9 | 0.00 | 0.00 | 0.00 | 87 | 1021.0 |
| 20260505071547 | 19 | 103 | 8.0 | 12.9 | 0.00 | 0.00 | 0.00 | 87 | 1021.0 |
| 20260505071047 | 20 | 100 | 9.7 | 12.9 | 0.00 | 0.00 | 0.00 | 86 | 1021.0 |
| 20260505070546 | 20 | 102 | 8.0 | 11.3 | 0.00 | 0.00 | 0.00 | 86 | 1021.0 |
| 20260505070054 | 20 | 102 | 8.0 | 11.3 | 0.00 | 0.00 | 0.00 | 86 | 1021.0 |
| 20260505065552 | 20 | 99 | 8.0 | 14.5 | 0.00 | 0.00 | 0.00 | 85 | 1021.0 |
| 20260505065046 | 20 | 99 | 9.7 | 14.5 | 0.00 | 0.00 | 0.00 | 85 | 1021.0 |
| 20260505064546 | 20 | 100 | 8.0 | 11.3 | 0.00 | 0.00 | 0.00 | 85 | 1021.0 |
| 20260505064046 | 20 | 97 | 8.0 | 12.9 | 0.00 | 0.00 | 0.00 | 85 | 1021.0 |
| 20260505063546 | 20 | 97 | 8.0 | 12.9 | 0.00 | 0.00 | 0.00 | 85 | 1021.0 |
| 20260505063049 | 20 | 103 | 8.0 | 12.9 | 0.00 | 0.00 | 0.00 | 84 | 1021.0 |
| 20260505062547 | 20 | 106 | 9.7 | 14.5 | 0.00 | 0.00 | 0.00 | 84 | 1021.0 |
| 20260505062047 | 20 | 106 | 8.0 | 12.9 | 0.00 | 0.00 | 0.00 | 84 | 1020.9 |
| 20260505061546 | 20 | 102 | 8.0 | 12.9 | 0.00 | 0.00 | 0.00 | 84 | 1020.9 |
| 20260505061047 | 20 | 102 | 8.0 | 12.9 | 0.00 | 0.00 | 0.00 | 84 | 1020.9 |
| 20260505060546 | 20 | 98 | 6.4 | 9.7 | 0.00 | 0.00 | 0.00 | 83 | 1020.9 |
| 20260505060046 | 20 | 99 | 6.4 | 12.9 | 0.00 | 0.00 | 0.00 | 84 | 1020.9 |
| 20260505055546 | 20 | 107 | 4.8 | 9.7 | 0.00 | 0.00 | 0.00 | 84 | 1021.0 |
| 20260505055046 | 20 | 108 | 4.8 | 12.9 | 0.00 | 0.00 | 0.00 | 84 | 1020.9 |
| 20260505054546 | 20 | 108 | 4.8 | 12.9 | 0.00 | 0.00 | 0.00 | 84 | 1020.9 |
| 20260505054047 | 20 | 115 | 4.8 | 9.7 | 0.00 | 0.00 | 0.00 | 84 | 1021.2 |
| 20260505053546 | 20 | 108 | 4.8 | 12.9 | 0.00 | 0.00 | 0.00 | 84 | 1021.0 |
| 20260505053046 | 20 | 108 | 4.8 | 12.9 | 0.00 | 0.00 | 0.00 | 84 | 1021.0 |
| 20260505052547 | 20 | 113 | 4.8 | 9.7 | 0.00 | 0.00 | 0.00 | 84 | 1021.0 |
| 20260505052046 | 20 | 109 | 4.8 | 9.7 | 0.00 | 0.00 | 0.00 | 84 | 1021.0 |
| 20260505051546 | 20 | 112 | 4.8 | 9.7 | 0.00 | 0.00 | 0.00 | 84 | 1021.2 |
| 20260505051046 | 20 | 112 | 4.8 | 9.7 | 0.00 | 0.00 | 0.00 | 84 | 1021.2 |
| 20260505050546 | 20 | 111 | 4.8 | 11.3 | 0.00 | 0.00 | 0.00 | 84 | 1021.2 |
| 20260505041546 | 21 | 100 | 8.0 | 11.3 | 0.00 | 0.00 | 0.00 | 83 | 1021.3 |
| 20260505041046 | 21 | 100 | 8.0 | 11.3 | 0.00 | 0.00 | 0.00 | 83 | 1021.3 |
| 20260505040546 | 21 | 100 | 8.0 | 11.3 | 0.00 | 0.00 | 0.00 | 83 | 1021.3 |
| 20260505040046 | 21 | 101 | 6.4 | 11.3 | 0.00 | 0.00 | 0.00 | 83 | 1021.5 |
| 20260505035546 | 21 | 99 | 8.0 | 12.9 | 0.00 | 0.00 | 0.00 | 83 | 1021.5 |
| 20260505035046 | 21 | 98 | 6.4 | 11.3 | 0.00 | 0.00 | 0.00 | 83 | 1021.5 |
| 20260505034546 | 21 | 97 | 6.4 | 11.3 | 0.00 | 0.00 | 0.00 | 83 | 1021.5 |
| 20260505034046 | 21 | 99 | 6.4 | 11.3 | 0.00 | 0.00 | 0.00 | 83 | 1021.5 |
| 20260505033546 | 21 | 94 | 6.4 | 9.7 | 0.00 | 0.00 | 0.00 | 83 | 1021.5 |
| 20260505033047 | 21 | 91 | 6.4 | 9.7 | 0.00 | 0.00 | 0.00 | 82 | 1021.5 |
| 20260505032546 | 21 | 93 | 6.4 | 9.7 | 0.00 | 0.00 | 0.00 | 83 | 1021.5 |
| 20260505032046 | 21 | 96 | 6.4 | 12.9 | 0.00 | 0.00 | 0.00 | 82 | 1021.5 |
| 20260505031546 | 21 | 96 | 8.0 | 12.9 | 0.00 | 0.00 | 0.00 | 82 | 1021.5 |
| 20260505031046 | 21 | 95 | 8.0 | 11.3 | 0.00 | 0.00 | 0.00 | 81 | 1021.2 |
| 20260505030546 | 21 | 95 | 8.0 | 11.3 | 0.00 | 0.00 | 0.00 | 81 | 1021.2 |
| 20260505030046 | 21 | 95 | 8.0 | 12.9 | 0.00 | 0.00 | 0.00 | 81 | 1021.2 |
| 20260505025546 | 21 | 95 | 8.0 | 11.3 | 0.00 | 0.00 | 0.00 | 81 | 1021.2 |
| 20260505025046 | 21 | 96 | 8.0 | 11.3 | 0.00 | 0.00 | 0.00 | 80 | 1021.5 |
| 20260505024546 | 21 | 92 | 6.4 | 14.5 | 0.00 | 0.00 | 0.00 | 80 | 1021.2 |
| 20260505024046 | 21 | 89 | 6.4 | 11.3 | 0.00 | 0.00 | 0.00 | 80 | 1021.2 |
| 20260505023546 | 21 | 93 | 6.4 | 11.3 | 0.00 | 0.00 | 0.00 | 79 | 1021.2 |
| 20260505023046 | 21 | 95 | 8.0 | 12.9 | 0.00 | 0.00 | 0.00 | 79 | 1021.2 |
| 20260505022546 | 21 | 102 | 8.0 | 12.9 | 0.00 | 0.00 | 0.00 | 78 | 1021.2 |
| 20260505022046 | 21 | 103 | 8.0 | 12.9 | 0.00 | 0.00 | 0.00 | 78 | 1021.2 |
| 20260505021546 | 21 | 103 | 6.4 | 11.3 | 0.00 | 0.00 | 0.00 | 78 | 1021.2 |
| 20260505021046 | 21 | 101 | 6.4 | 11.3 | 0.00 | 0.00 | 0.00 | 79 | 1021.1 |
| 20260505020546 | 21 | 106 | 6.4 | 11.3 | 0.00 | 0.00 | 0.00 | 79 | 1021.2 |
| 20260505020046 | 21 | 112 | 4.8 | 8.0 | 0.00 | 0.00 | 0.00 | 79 | 1021.2 |
| 20260505015546 | 21 | 113 | 4.8 | 8.0 | 0.00 | 0.00 | 0.00 | 79 | 1021.1 |
| 20260505015046 | 21 | 113 | 3.2 | 9.7 | 0.00 | 0.00 | 0.00 | 79 | 1021.1 |
| 20260505014546 | 21 | 122 | 3.2 | 11.3 | 0.00 | 0.00 | 0.00 | 78 | 1021.1 |
| 20260505014046 | 21 | 119 | 3.2 | 8.0 | 0.00 | 0.00 | 0.00 | 78 | 1021.1 |
| 20260505013546 | 21 | 121 | 4.8 | 9.7 | 0.00 | 0.00 | 0.00 | 78 | 1021.1 |
| 20260505013046 | 21 | 120 | 4.8 | 11.3 | 0.00 | 0.00 | 0.00 | 78 | 1020.9 |
| 20260505012546 | 21 | 129 | 4.8 | 11.3 | 0.00 | 0.00 | 0.00 | 79 | 1020.9 |
| 20260505012046 | 21 | 129 | 6.4 | 9.7 | 0.00 | 0.00 | 0.00 | 79 | 1021.0 |
| 20260505011546 | 21 | 134 | 6.4 | 11.3 | 0.00 | 0.00 | 0.00 | 79 | 1020.9 |
| 20260505011046 | 22 | 135 | 6.4 | 9.7 | 0.00 | 0.00 | 0.00 | 78 | 1020.9 |
| 20260505010546 | 22 | 135 | 6.4 | 9.7 | 0.00 | 0.00 | 0.00 | 78 | 1020.9 |
| 20260505010046 | 22 | 133 | 4.8 | 11.3 | 0.00 | 0.00 | 0.00 | 77 | 1020.9 |
| 20260505005546 | 22 | 136 | 4.8 | 11.3 | 0.00 | 0.00 | 0.00 | 77 | 1020.9 |
| 20260505005046 | 22 | 136 | 6.4 | 9.7 | 0.00 | 0.00 | 0.00 | 77 | 1020.9 |
| 20260505004546 | 22 | 132 | 6.4 | 9.7 | 0.00 | 0.00 | 0.00 | 77 | 1020.8 |
| 20260505004046 | 22 | 130 | 6.4 | 11.3 | 0.00 | 0.00 | 0.00 | 77 | 1020.8 |
| 20260505003546 | 22 | 132 | 6.4 | 11.3 | 0.00 | 0.00 | 0.00 | 76 | 1020.8 |
| 20260505003046 | 22 | 134 | 6.4 | 9.7 | 0.00 | 0.00 | 0.00 | 76 | 1020.8 |
| 20260505002546 | 22 | 134 | 6.4 | 11.3 | 0.00 | 0.00 | 0.00 | 75 | 1020.8 |
| 20260505002046 | 22 | 132 | 6.4 | 11.3 | 0.00 | 0.00 | 0.00 | 75 | 1020.7 |
| 20260505001546 | 22 | 130 | 6.4 | 11.3 | 0.00 | 0.00 | 0.00 | 74 | 1020.7 |
| 20260505001046 | 22 | 127 | 6.4 | 9.7 | 0.00 | 0.00 | 0.00 | 74 | 1020.7 |
| 20260505000546 | 22 | 124 | 4.8 | 11.3 | 0.00 | 0.00 | 0.00 | 73 | 1020.7 |
| 20260505000046 | 22 | 125 | 6.4 | 11.3 | 0.00 | 0.00 | 0.00 | 73 | 1020.5 |
| 20260504235546 | 23 | 121 | 4.8 | 11.3 | 0.00 | 0.00 | 0.00 | 73 | 1020.5 |
| 20260504235046 | 23 | 127 | 4.8 | 11.3 | 0.00 | 0.00 | 0.00 | 73 | 1020.4 |
| 20260504234546 | 23 | 128 | 6.4 | 9.7 | 0.00 | 0.00 | 0.00 | 74 | 1020.4 |
| 20260504234046 | 23 | 135 | 6.4 | 9.7 | 0.00 | 0.00 | 0.00 | 73 | 1020.4 |
| 20260504233546 | 23 | 129 | 6.4 | 11.3 | 0.00 | 0.00 | 0.00 | 73 | 1020.4 |
| 20260504233046 | 23 | 141 | 8.0 | 11.3 | 0.00 | 0.00 | 0.00 | 72 | 1020.4 |
| 20260504232546 | 23 | 136 | 8.0 | 11.3 | 0.00 | 0.00 | 0.00 | 72 | 1020.4 |
| 20260504232046 | 23 | 132 | 6.4 | 11.3 | 0.00 | 0.00 | 0.00 | 72 | 1020.2 |
| 20260504231546 | 23 | 130 | 6.4 | 8.0 | 0.00 | 0.00 | 0.00 | 72 | 1020.2 |
| 20260504231046 | 22 | 130 | 4.8 | 8.0 | 0.00 | 0.00 | 0.00 | 73 | 1019.9 |
| 20260504230546 | 22 | 127 | 3.2 | 8.0 | 0.00 | 0.00 | 0.00 | 73 | 1019.9 |
| 20260504230046 | 22 | 129 | 3.2 | 9.7 | 0.00 | 0.00 | 0.00 | 74 | 1019.7 |
| 20260504225546 | 22 | 117 | 3.2 | 8.0 | 0.00 | 0.00 | 0.00 | 74 | 1019.9 |
| 20260504225046 | 22 | 121 | 3.2 | 4.8 | 0.00 | 0.00 | 0.00 | 74 | 1019.7 |
| 20260504224546 | 22 | 114 | 3.2 | 6.4 | 0.00 | 0.00 | 0.00 | 73 | 1019.9 |
| 20260504224046 | 22 | 133 | 4.8 | 6.4 | 0.00 | 0.00 | 0.00 | 72 | 1019.9 |
| 20260504223546 | 23 | 146 | 4.8 | 8.0 | 0.00 | 0.00 | 0.00 | 71 | 1019.7 |
| 20260504223046 | 23 | 138 | 4.8 | 6.4 | 0.00 | 0.00 | 0.00 | 70 | 1019.7 |
| 20260504222546 | 23 | 139 | 4.8 | 8.0 | 0.00 | 0.00 | 0.00 | 71 | 1019.6 |
| 20260504222046 | 23 | 148 | 4.8 | 6.4 | 0.00 | 0.00 | 0.00 | 70 | 1019.6 |
| 20260504221546 | 23 | 150 | 4.8 | 6.4 | 0.00 | 0.00 | 0.00 | 70 | 1019.4 |
| 20260504221046 | 23 | 148 | 3.2 | 6.4 | 0.00 | 0.00 | 0.00 | 71 | 1019.4 |
| 20260504220546 | 23 | 146 | 3.2 | 6.4 | 0.00 | 0.00 | 0.00 | 71 | 1019.3 |
| 20260504220046 | 23 | 146 | 3.2 | 4.8 | 0.00 | 0.00 | 0.00 | 71 | 1019.3 |
| 20260504215546 | 23 | 146 | 3.2 | 4.8 | 0.00 | 0.00 | 0.00 | 71 | 1019.1 |
| 20260504215046 | 23 | 153 | 3.2 | 4.8 | 0.00 | 0.00 | 0.00 | 70 | 1019.1 |
| 20260504214546 | 23 | 156 | 3.2 | 4.8 | 0.00 | 0.00 | 0.00 | 71 | 1019.1 |
| 20260504214046 | 23 | 153 | 3.2 | 4.8 | 0.00 | 0.00 | 0.00 | 71 | 1019.0 |
| 20260504213546 | 23 | 155 | 3.2 | 4.8 | 0.00 | 0.00 | 0.00 | 71 | 1018.9 |
| 20260504213046 | 23 | 148 | 3.2 | 4.8 | 0.00 | 0.00 | 0.00 | 72 | 1018.9 |
| 20260504212546 | 23 | 142 | 3.2 | 4.8 | 0.00 | 0.00 | 0.00 | 72 | 1018.9 |
| 20260504212046 | 24 | 151 | 3.2 | 4.8 | 0.00 | 0.00 | 0.00 | 70 | 1019.1 |
| 20260504211546 | 24 | 154 | 3.2 | 3.2 | 0.00 | 0.00 | 0.00 | 69 | 1019.0 |
| 20260504211046 | 24 | 145 | 3.2 | 4.8 | 0.00 | 0.00 | 0.00 | 68 | 1019.0 |
| 20260504210546 | 24 | 142 | 3.2 | 4.8 | 0.00 | 0.00 | 0.00 | 68 | 1019.0 |
| 20260504210046 | 24 | 143 | 3.2 | 4.8 | 0.00 | 0.00 | 0.00 | 66 | 1018.9 |
| 20260504205546 | 25 | 147 | 3.2 | 4.8 | 0.00 | 0.00 | 0.00 | 65 | 1018.9 |
| 20260504205046 | 25 | 146 | 3.2 | 4.8 | 0.00 | 0.00 | 0.00 | 64 | 1018.9 |
| 20260504204546 | 25 | 144 | 4.8 | 6.4 | 0.00 | 0.00 | 0.00 | 64 | 1018.8 |
| 20260504204046 | 25 | 133 | 3.2 | 6.4 | 0.00 | 0.00 | 0.00 | 64 | 1018.8 |
| 20260504203546 | 25 | 132 | 3.2 | 4.8 | 0.00 | 0.00 | 0.00 | 63 | 1018.8 |
| 20260504203046 | 25 | 121 | 3.2 | 4.8 | 0.00 | 0.00 | 0.00 | 63 | 1018.6 |
| 20260504202546 | 26 | 122 | 1.6 | 3.2 | 0.00 | 0.00 | 0.00 | 63 | 1018.6 |
| 20260504202046 | 26 | 111 | 1.6 | 3.2 | 0.00 | 0.00 | 0.00 | 63 | 1018.8 |
| 20260504201546 | 26 | 95 | 1.6 | 3.2 | 0.00 | 0.00 | 0.00 | 62 | 1018.8 |
| 20260504201046 | 26 | 114 | 1.6 | 3.2 | 0.00 | 0.00 | 0.00 | 60 | 1018.6 |
| 20260504200546 | 27 | 116 | 1.6 | 3.2 | 0.00 | 0.00 | 0.00 | 59 | 1018.6 |
| 20260504200046 | 27 | 118 | 3.2 | 6.4 | 0.00 | 0.00 | 0.00 | 58 | 1018.6 |
| 20260504195546 | 27 | 111 | 3.2 | 8.0 | 0.00 | 0.00 | 0.00 | 58 | 1018.8 |
| 20260504195046 | 27 | 103 | 4.8 | 6.4 | 0.00 | 0.00 | 0.00 | 57 | 1018.8 |
| 20260504194546 | 27 | 104 | 4.8 | 6.4 | 0.00 | 0.00 | 0.00 | 57 | 1018.8 |
| 20260504194046 | 27 | 102 | 4.8 | 6.4 | 0.00 | 0.00 | 0.00 | 58 | 1018.8 |
| 20260504193546 | 27 | 111 | 3.2 | 6.4 | 0.00 | 0.00 | 0.00 | 58 | 1018.6 |
| 20260504193046 | 27 | 90 | 3.2 | 4.8 | 0.00 | 0.00 | 0.00 | 55 | 1018.6 |
| 20260504192546 | 27 | 75 | 3.2 | 6.4 | 0.00 | 0.00 | 0.00 | 52 | 1018.6 |
| 20260504192046 | 28 | 84 | 1.6 | 3.2 | 0.00 | 0.00 | 0.00 | 50 | 1018.6 |
| 20260504191546 | 28 | 85 | 1.6 | 4.8 | 0.00 | 0.00 | 0.00 | 51 | 1018.6 |
| 20260504191046 | 28 | 92 | 3.2 | 8.0 | 0.00 | 0.00 | 0.00 | 50 | 1018.6 |
| 20260504190546 | 28 | 103 | 4.8 | 9.7 | 0.00 | 0.00 | 0.00 | 51 | 1018.6 |
| 20260504190046 | 28 | 80 | 4.8 | 9.7 | 0.00 | 0.00 | 0.00 | 51 | 1018.6 |
| 20260504185545 | 28 | 55 | 4.8 | 8.0 | 0.00 | 0.00 | 0.00 | 51 | 1018.5 |
| 20260504185046 | 28 | 58 | 4.8 | 11.3 | 0.00 | 0.00 | 0.00 | 50 | 1018.6 |
| 20260504184545 | 28 | 79 | 4.8 | 11.3 | 0.00 | 0.00 | 0.00 | 49 | 1018.6 |
| 20260504184045 | 29 | 19 | 3.2 | 6.4 | 0.00 | 0.00 | 0.00 | 48 | 1018.6 |
| 20260504183546 | 28 | 2 | 1.6 | 8.0 | 0.00 | 0.00 | 0.00 | 50 | 1018.5 |
| 20260504183046 | 28 | 122 | 3.2 | 6.4 | 0.00 | 0.00 | 0.00 | 49 | 1018.6 |
| 20260504182546 | 28 | 18 | 3.2 | 6.4 | 0.00 | 0.00 | 0.00 | 49 | 1018.6 |
| 20260504182046 | 28 | 26 | 3.2 | 8.0 | 0.00 | 0.00 | 0.00 | 48 | 1018.6 |
| 20260504181545 | 28 | 353 | 4.8 | 11.3 | 0.00 | 0.00 | 0.00 | 50 | 1018.8 |
| 20260504181045 | 27 | 15 | 8.0 | 14.5 | 0.00 | 0.00 | 0.00 | 52 | 1018.8 |
| 20260504180546 | 28 | 46 | 6.4 | 14.5 | 0.00 | 0.00 | 0.00 | 51 | 1018.8 |
| 20260504180046 | 28 | 64 | 4.8 | 11.3 | 0.00 | 0.00 | 0.00 | 51 | 1018.8 |
| 20260504175545 | 28 | 61 | 4.8 | 9.7 | 0.00 | 0.00 | 0.00 | 51 | 1018.8 |
| 20260504175046 | 28 | 46 | 4.8 | 8.0 | 0.00 | 0.00 | 0.00 | 51 | 1019.0 |
| 20260504174545 | 28 | 27 | 8.0 | 14.5 | 0.00 | 0.00 | 0.00 | 51 | 1019.1 |
| 20260504174045 | 28 | 46 | 6.4 | 11.3 | 0.00 | 0.00 | 0.00 | 52 | 1019.1 |
| 20260504173546 | 28 | 57 | 6.4 | 12.9 | 0.00 | 0.00 | 0.00 | 51 | 1019.1 |
| 20260504173045 | 28 | 15 | 4.8 | 11.3 | 0.00 | 0.00 | 0.00 | 52 | 1019.1 |
| 20260504172545 | 28 | 30 | 4.8 | 11.3 | 0.00 | 0.00 | 0.00 | 52 | 1019.2 |
| 20260504172046 | 28 | 13 | 3.2 | 8.0 | 0.00 | 0.00 | 0.00 | 52 | 1019.2 |
| 20260504171547 | 27 | 100 | 3.2 | 8.0 | 0.00 | 0.00 | 0.00 | 53 | 1019.3 |
| 20260504171045 | 28 | 343 | 3.2 | 8.0 | 0.00 | 0.00 | 0.00 | 51 | 1019.4 |
| 20260504170545 | 28 | 332 | 4.8 | 12.9 | 0.00 | 0.00 | 0.00 | 51 | 1019.4 |
| 20260504151045 | 25 | 28 | 8.0 | 14.5 | 0.00 | 0.00 | 0.00 | 60 | 1020.8 |
| 20260504150545 | 25 | 20 | 6.4 | 17.7 | 0.00 | 0.00 | 0.00 | 59 | 1020.9 |